This is the latest recevied weather packets stored in our database for station/object KK7RJD. If no packets are shown the sender has not sent any weather packets the latest 10 day(s).
| Time | Temp. | Humidity | Pressure | Rain* | Wind** | Luminosity | Snow |
|---|---|---|---|---|---|---|---|
| 1777319525 | 2.78° C | 64% | 1014.4 hPa | 0 mm | - | 492 W/m² | - |
| 1777319222 | 3.33° C | 62% | 1014.3 hPa | 0 mm | - | 431 W/m² | - |
| 1777318918 | 2.78° C | 61% | 1014.2 hPa | 0 mm | - | 475 W/m² | - |
| 1777318616 | 2.78° C | 66% | 1014.3 hPa | 0 mm | - | 485 W/m² | - |
| 1777318312 | 2.78° C | 64% | 1014.3 hPa | 0 mm | - | 499 W/m² | - |
| 1777318008 | 2.78° C | 65% | 1014.1 hPa | 0 mm | - | 533 W/m² | - |
| 1777317706 | 2.22° C | 69% | 1014.4 hPa | 0 mm | - | 650 W/m² | - |
| 1777317403 | 2.22° C | 67% | 1014.4 hPa | 0 mm | - | 453 W/m² | - |
| 1777317098 | 2.22° C | 67% | 1014.5 hPa | 0 mm | - | 325 W/m² | - |
| 1777316796 | 1.67° C | 68% | 1014.8 hPa | 0 mm | - | 312 W/m² | - |
| 1777316492 | 1.67° C | 68% | 1014.6 hPa | 0 mm | - | 310 W/m² | - |
| 1777316189 | 1.67° C | 68% | 1014.6 hPa | 0 mm | - | 287 W/m² | - |
| 1777315887 | 2.22° C | 67% | 1014.8 hPa | 0 mm | - | 246 W/m² | - |
| 1777315585 | 1.67° C | 68% | 1014.6 hPa | 0 mm | - | 230 W/m² | - |
| 1777315283 | 1.67° C | 67% | 1014.9 hPa | 0 mm | - | 212 W/m² | - |
| 1777314980 | 1.67° C | 68% | 1014.9 hPa | 0 mm | - | 215 W/m² | - |
| 1777314676 | 1.11° C | 70% | 1014.6 hPa | 0 mm | - | 201 W/m² | - |
| 1777314372 | 1.11° C | 70% | 1014.9 hPa | 0 mm | - | 188 W/m² | - |
| 1777314070 | 1.11° C | 70% | 1014.8 hPa | 0 mm | - | 177 W/m² | - |
| 1777313768 | 1.11° C | 70% | 1014.9 hPa | 0 mm | - | 171 W/m² | - |
| 1777313465 | 1.11° C | 70% | 1015 hPa | 0 mm | - | 164 W/m² | - |
| 1777313162 | 1.11° C | 70% | 1015 hPa | 0 mm | - | 187 W/m² | - |
| 1777312857 | 1.11° C | 72% | 1015 hPa | 0 mm | - | 207 W/m² | - |
| 1777312554 | 1.11° C | 71% | 1014.9 hPa | 0 mm | - | 210 W/m² | - |
| 1777312252 | 1.11° C | 69% | 1014.8 hPa | 0 mm | - | 262 W/m² | - |
* Rain latest hour (hover to see other rain measurements)
** Current wind speed in m/s (hover to see current wind gust speed)